TimeEET,TemperatureF,Dew PointF,Humidity,Sea Level PressureIn,VisibilityMPH,Wind Direction,Wind SpeedMPH,Gust SpeedMPH,PrecipitationIn,Events,Conditions,WindDirDegrees,DateUTC
12:50 AM,26.6,23.0,86,29.95,-9999.0,ENE,2.3,-,N/A,,Clear,70,2013-03-10 22:50:00
1:50 AM,28.4,24.8,86,29.92,-9999.0,Calm,Calm,-,N/A,,Clear,0,2013-03-10 23:50:00
2:00 AM,28,24,80,,6,Calm,Calm,,,,,,2013-03-11 00:00:00
2:50 AM,24.8,23.0,93,29.92,-9999.0,NE,3.5,-,N/A,,Clear,50,2013-03-11 00:50:00
3:50 AM,24.8,23.0,93,29.92,6.2,East,3.5,-,N/A,,Partly Cloudy,80,2013-03-11 01:50:00
4:50 AM,24.8,23.0,93,29.95,5.0,Calm,Calm,-,N/A,,Partly Cloudy,0,2013-03-11 02:50:00
5:50 AM,26.6,23.0,86,29.95,5.0,East,2.3,-,N/A,,Partly Cloudy,90,2013-03-11 03:50:00
6:50 AM,32.0,26.6,80,29.95,2.5,ENE,3.5,-,N/A,,Partly Cloudy,70,2013-03-11 04:50:00
7:10 AM,35.6,26.6,70,29.95,5.0,Calm,Calm,-,N/A,,Partly Cloudy,0,2013-03-11 05:10:00
7:50 AM,37.4,28.4,70,29.95,5.0,Variable,2.3,-,N/A,,Partly Cloudy,0,2013-03-11 05:50:00
8:00 AM,36,27,60,,5,WSW,2.3,,,,Haze,240,2013-03-11 06:00:00
8:50 AM,37.4,28.4,70,29.98,-9999.0,WNW,5.8,-,N/A,,Clear,290,2013-03-11 06:50:00
9:50 AM,39.2,30.2,70,29.98,-9999.0,WNW,8.1,-,N/A,,Clear,290,2013-03-11 07:50:00
10:50 AM,41.0,30.2,65,29.98,-9999.0,WNW,8.1,-,N/A,,Clear,300,2013-03-11 08:50:00
11:50 AM,41.0,30.2,65,29.98,-9999.0,WNW,9.2,-,N/A,,Clear,290,2013-03-11 09:50:00
12:50 PM,41.0,28.4,61,29.95,-9999.0,West,5.8,-,N/A,,Clear,280,2013-03-11 10:50:00
1:50 PM,41.0,28.4,61,29.95,6.2,WNW,5.8,-,N/A,,Partly Cloudy,300,2013-03-11 11:50:00
2:50 PM,41.0,28.4,61,29.95,6.2,WNW,6.9,-,N/A,,Partly Cloudy,300,2013-03-11 12:50:00
3:50 PM,42.8,26.6,53,29.95,6.2,NNW,6.9,-,N/A,,Partly Cloudy,340,2013-03-11 13:50:00
4:50 PM,41.0,30.2,65,29.98,6.2,West,4.6,-,N/A,,Partly Cloudy,280,2013-03-11 14:50:00
5:50 PM,37.4,30.2,75,29.98,6.2,WSW,2.3,-,N/A,,Partly Cloudy,250,2013-03-11 15:50:00
6:50 PM,35.6,30.2,81,30.01,6.2,ESE,3.5,-,N/A,,Partly Cloudy,110,2013-03-11 16:50:00
7:50 PM,33.8,28.4,81,30.01,6.2,SE,2.3,-,N/A,,Partly Cloudy,140,2013-03-11 17:50:00
8:00 PM,34,29,74,,6,SE,2.3,,,,Scattered Clouds,140,2013-03-11 18:00:00
8:50 PM,32.0,30.2,93,30.01,6.2,East,3.5,-,N/A,,Partly Cloudy,80,2013-03-11 18:50:00
9:50 PM,32.0,28.4,87,30.01,6.2,East,2.3,-,N/A,,Partly Cloudy,80,2013-03-11 19:50:00
10:50 PM,30.2,28.4,93,30.01,6.2,Variable,1.2,-,N/A,,Partly Cloudy,0,2013-03-11 20:50:00
11:50 PM,33.8,28.4,81,30.01,6.2,Variable,3.5,-,N/A,,Partly Cloudy,0,2013-03-11 21:50:00